User: anonymous   Login
Location: Unspecified
(0.0000°N, 0.0000°E)
Time: 15:35:46
(UTC+00:00)
Language:

WGS 5 (USA 243) - Orbit

View from above orbital plane
View from above orbital plane
View from above satellite
View from above satellite

Ground track
Ground track

The orbit data is extracted from the following two-line orbital elements,

1 39168U 13024A   18231.12013464 0.00000000  00000-0  00000-0 0    06
2 39168   0.0211 318.0971 0003999 101.2240 258.8567  1.00270000    03
Epoch (UTC): 19 August 2018 02:52:59
Eccentricity: 0.0003999
inclination: 0.0211°
perigee height: 35770 km
apogee height: 35803 km
right ascension of ascending node: 318.0971°
argument of perigee: 101.2240°
revolutions per day: 1.00270000
mean anomaly at epoch: 258.8567°
orbit number at epoch: 0

The dashed part of the orbit path shows where the satellite is in the earth's shadow,  

DLR